Weather in Tatarbunary

Ukraine / Odesa District     45°50′12″N   29°37′00″E
В апреле 2022 года жителям России запретили посещать сайт meteo.paraplan.net по решению Генеральной прокуратуры. Аудитория сайта уменьшилась в 10 раз. Владельцы сайта не видят смысла в поддержке погодного сервера в таких условиях. Сайт будет закрыт в октябре.
temp.,
°C
wind,
m/s
gust,
m/s
humid.,
%
clouds,
%
prec.,
mm/h
press.,
hPa
HPBL,
m
25 september, sun
sun2500:00+11ssw2253100 0.0 102010
03:00+10s115986 0.0 102010
06:00+9sw2260100 0.0 102010
09:00+14sw23465 0.0 1020212
12:00+21ssw45285 0.0 10191554
15:00+24ssw46216 0.0 10162065
18:00+22ssw5826100 0.0 1016459
21:00+16s5126697 0.0 1016298
26 september, mon
mon2600:00+15s5127469 0.0 1016325
03:00+16s51174100 0.0 1015369
06:00+16s51275100 0.0 1013442
09:00+20ssw7106250 0.0 1013746
12:00+25sw792895 0.0 10121859
15:00+27ssw782592 0.0 10102406
18:00+24s683872 0.0 1009709
21:00+18sse5107358 0.0 1009294
27 september, tue
tue2700:00+17sse41075100 0.0 1008248
03:00+18sse41073100 0.0 1006288
06:00+19sse5980100 0.0 1003321
09:00+20s696490 0.0 1002502
12:00+25sw6731100 0.0 10011076
15:00+27wsw111235100 0.0 10002100
18:00+20sw71164100 0.2 1001658
21:00+17sw51082100 1.1 1002350
28 september, wed
wed2800:00+16sw51185100 0.0 1002331
03:00+15sw389280 0.0 1002191
06:00+14w22920 0.0 100333
09:00+17nw11690 0.0 1004235
12:00+23w34415 0.0 10041215
15:00+26wsw352941 0.0 10032446
18:00+22se445061 0.0 1004260
21:00+20sse246571 0.0 1006141
29 september, thu
thu2900:00+17s22745 0.0 100718
03:00+17ssw33545 0.0 100722
06:00+16s336755 0.0 100720
09:00+20sse3565100 0.0 1008216
12:00+26sse674286 0.0 10081272
15:00+25sse91054100 0.0 1008730
18:00+22se6972100 0.0 1008441
21:00+19sse51184100 0.0 1009338